CW5671 Weather Reports


time (UTC)temp
C
wind
direction
speed
KPH
gust
KPH
rain 1hr
cm
rain 24hr
cm
rain mn
cm
humidity
%
barometer
mb
20260506124512 12 115 0.0 0.0 0.00 0.00 0.00 92 1021.4
20260506123048 12 115 0.0 0.0 0.00 0.00 0.00 92 1021.3
20260506121521 12 116 0.0 0.0 0.00 0.00 0.00 92 1021.2
20260506120055 12 115 0.0 0.0 0.00 0.00 0.00 92 1021.1
20260506114542 12 116 0.0 0.0 0.00 0.00 0.00 92 1021.1
20260506113013 12 116 0.0 0.0 0.00 0.00 0.00 92 1021.0
20260506111612 12 116 0.0 0.0 0.00 0.00 0.00 92 1021.0
20260506110043 12 116 0.0 0.0 0.00 0.00 0.00 92 1020.9
20260506104523 12 115 0.0 0.0 0.00 0.00 0.00 92 1020.7
20260506103002 12 115 0.0 0.0 0.00 0.00 0.00 92 1020.8
20260506101554 12 116 0.0 0.0 0.00 0.00 0.00 92 1020.5
20260506100034 12 115 0.0 0.0 0.00 0.00 0.00 91 1020.5
20260506094602 12 116 0.0 0.0 0.00 0.00 0.00 91 1020.5
20260506093052 12 115 0.0 0.0 0.00 0.00 0.00 91 1020.5
20260506091521 12 115 0.0 0.0 0.00 0.00 0.00 91 1020.5
20260506090056 12 116 0.0 0.0 0.00 0.00 0.00 91 1020.5
20260506084533 12 116 0.0 0.0 0.00 0.00 0.00 91 1020.6
20260506083011 12 116 0.0 0.0 0.00 0.00 0.00 91 1020.6
20260506081548 12 116 0.0 0.0 0.00 0.00 0.00 91 1020.6
20260506073035 12 116 0.0 0.0 0.00 0.00 0.00 89 1020.3
20260506071510 13 116 0.0 0.0 0.00 0.00 0.00 89 1020.0
20260506070125 13 116 0.0 0.0 0.00 0.00 0.00 89 1019.9
20260506061542 13 116 0.0 0.0 0.00 0.00 0.00 89 1019.7
20260506044518 13 115 0.0 0.0 0.00 0.00 0.00 87 1019.0
20260506043056 13 116 0.0 0.0 0.00 0.00 0.00 87 1018.9
20260506041533 13 116 0.0 0.0 0.00 0.00 0.00 86 1018.8
20260506034530 13 115 0.0 0.0 0.00 0.00 0.00 85 1018.3
20260506033014 13 115 0.0 0.0 0.00 0.00 0.00 84 1017.9
20260506031542 14 116 0.0 0.0 0.00 0.00 0.00 83 1017.9
20260506030016 14 116 0.0 0.0 0.00 0.00 0.00 83 1017.8
20260506024606 14 116 0.0 1.6 0.00 0.00 0.00 82 1017.5
20260506023032 14 116 0.0 1.6 0.00 0.00 0.00 81 1017.3
20260506021513 15 116 0.0 1.6 0.00 0.00 0.00 81 1017.3
20260506020100 15 115 0.0 8.0 0.00 0.00 0.00 80 1016.9
20260506014523 15 115 0.0 4.8 0.00 0.00 0.00 79 1016.8
20260506013005 15 116 1.6 4.8 0.00 0.00 0.00 78 1016.8
20260506011607 15 119 0.0 4.8 0.00 0.00 0.00 78 1016.9
20260506010029 15 118 0.0 4.8 0.00 0.00 0.00 79 1016.7
20260506004503 15 118 0.0 4.8 0.00 0.00 0.00 79 1016.9
20260506003048 15 119 0.0 1.6 0.00 0.00 0.00 80 1016.8
20260506001523 15 118 0.0 1.6 0.00 0.00 0.00 81 1016.8
20260506000003 14 119 0.0 3.2 0.00 0.00 0.00 81 1016.4
20260505234533 14 119 0.0 3.2 0.00 0.00 0.00 81 1016.6
20260505233058 15 119 0.0 0.0 0.00 0.00 0.00 80 1016.7
20260505231527 15 119 0.0 0.0 0.00 0.00 0.00 80 1016.6
20260505230009 15 119 0.0 1.6 0.00 0.00 0.00 81 1016.7
20260505224544 15 119 0.0 0.0 0.00 0.00 0.00 81 1016.7
20260505223021 15 118 0.0 1.6 0.00 0.00 0.00 81 1016.7
20260505221600 15 119 0.0 3.2 0.00 0.00 0.00 81 1016.8
20260505220039 15 119 0.0 3.2 0.00 0.00 0.00 80 1016.9
20260505214511 15 119 0.0 3.2 0.00 0.00 0.00 79 1016.9
20260505213043 15 119 0.0 3.2 0.00 0.00 0.00 78 1017.1
20260505211524 15 119 0.0 3.2 0.00 0.00 0.00 78 1017.1
20260505210050 14 119 0.0 1.6 0.00 0.00 0.00 80 1017.1
20260505204521 14 119 0.0 1.6 0.00 0.00 0.00 81 1017.0
20260505203102 13 119 0.0 0.0 0.00 0.00 0.00 80 1017.0
20260505201531 13 119 0.0 0.0 0.00 0.00 0.00 82 1017.0
20260505200001 13 119 0.0 4.8 0.00 0.00 0.00 83 1017.0
20260505194552 14 119 0.0 3.2 0.00 0.00 0.00 83 1017.0
20260505193023 14 119 0.0 1.6 0.00 0.00 0.00 82 1017.0
20260505191555 14 88 0.0 3.2 0.00 0.00 0.00 81 1017.0
20260505190039 15 55 0.0 4.8 0.00 0.00 0.00 82 1017.0
20260505184509 13 55 1.6 3.2 0.00 0.00 0.00 83 1017.0
20260505183041 13 55 0.0 0.0 0.00 0.00 0.00 84 1017.0
20260505181514 13 55 0.0 3.2 0.00 0.00 0.00 81 1016.9
20260505180020 13 54 0.0 3.2 0.00 0.00 0.00 82 1016.9
20260505174517 13 33 0.0 1.6 0.00 0.00 0.00 85 1016.9
20260505173112 13 33 0.0 3.2 0.00 0.00 0.00 87 1016.8
20260505171530 12 33 0.0 3.2 0.00 0.00 0.00 89 1017.0
20260505170024 12 33 0.0 4.8 0.00 0.00 0.00 88 1017.0
20260505164606 11 24 0.0 4.8 0.00 0.00 0.00 90 1017.0
20260505163034 11 24 0.0 3.2 0.00 0.00 0.00 91 1017.0
20260505161512 11 255 0.0 4.8 0.00 0.00 0.00 92 1017.0
20260505153058 10 256 0.0 3.2 0.00 0.00 0.00 95 1016.9
20260505151533 10 256 0.0 0.0 0.00 0.00 0.00 95 1016.8